OSCAR 7 (AO-7) 1 07530U 74089B 26121.29055546 -.00000034 00000+0 79719-4 0 9995 2 07530 101.9926 134.0449 0012002 219.2541 152.0055 12.53697396354640 PHASE 3B (AO-10) 1 14129U 83058B 26118.35311208 -.00000137 00000+0 00000+0 0 9992 2 14129 25.8946 227.8674 6028461 101.9264 327.7175 2.05873308294462 UOSAT 2 (UO-11) 1 14781U 84021B 26120.89975147 .00001399 00000+0 14838-3 0 9995 2 14781 97.8024 87.0173 0007327 352.8767 7.2346 14.90669151250085 LUSAT (LO-19) 1 20442U 90005G 26121.29719097 .00000152 00000+0 71063-4 0 9990 2 20442 98.8880 141.8042 0011292 349.4052 10.6892 14.34108286895675 EYESAT A (AO-27) 1 22825U 93061C 26121.15064104 .00000112 00000+0 59552-4 0 9994 2 22825 98.6900 188.5756 0007466 233.5672 126.4823 14.30929178700270 ITAMSAT (IO-26) 1 22826U 93061D 26121.14405029 .00000111 00000+0 58901-4 0 9995 2 22826 98.6846 188.4817 0008229 215.6736 144.3897 14.31354766700587 RADIO ROSTO (RS15) 1 23439U 94085A 26121.19945777 -.00000039 00000+0 10912-3 0 9996 2 23439 64.8209 19.2088 0154617 12.4382 348.0292 11.27583770290600 JAS-2 (FO-29) 1 24278U 96046B 26121.13969796 .00000010 00000+0 46840-4 0 9996 2 24278 98.5294 336.4418 0349202 218.3995 139.1818 13.53272049466809 TECHSAT 1B (GO-32) 1 25397U 98043D 26120.93118432 .00000063 00000+0 47373-4 0 9998 2 25397 99.0062 112.5015 0001590 34.8464 325.2818 14.24418906444609 ISS (ZARYA) 1 25544U 98067A 26121.23215145 .00007946 00000+0 15194-3 0 9993 2 25544 51.6312 172.5179 0007183 10.5209 349.5928 15.49045666564470 PCSAT (NO-44) 1 26931U 01043C 26121.08321288 .00000152 00000+0 87653-4 0 9993 2 26931 67.0526 6.1038 0006440 263.9297 96.1071 14.31937472283704 SAUDISAT 1C (SO-50) 1 27607U 02058C 26120.81611918 .00001284 00000+0 16857-3 0 9997 2 27607 64.5517 275.5370 0075620 271.0859 88.1584 14.82941374257431 CUTE-1 (CO-55) 1 27844U 03031E 26121.25152925 .00000349 00000+0 16994-3 0 9992 2 27844 98.6752 130.3989 0008840 328.4890 31.5759 14.24306199184991 CUBESAT XI-IV (CO-57) 1 27848U 03031J 26121.00566327 .00000259 00000+0 13282-3 0 9991 2 27848 98.6788 129.9070 0009102 348.5967 11.5004 14.23594934184669 MOZHAETS 4 (RS22) 1 27939U 03042A 26121.29441400 .00000984 00000+0 16004-3 0 9999 2 27939 98.3463 304.3319 0012431 60.5915 42.6478 14.73382179208641 CUBESAT XI-V 1 28895U 05043F 26121.24578495 .00001678 00000+0 27221-3 0 9998 2 28895 98.2930 275.9000 0013912 359.9432 0.1771 14.72507131 94841 CUTE-1.7+APD II (CO-65) 1 32785U 08021C 26121.24133478 .00006814 00000+0 43468-3 0 9996 2 32785 97.8249 101.7081 0008889 177.6359 182.4912 15.09002780978110 SEEDS II (CO-66) 1 32791U 08021J 26120.97458408 .00021953 00000+0 73123-3 0 9997 2 32791 97.7523 116.6816 0005114 107.3643 252.8157 15.31126835980069 YUBILEINY (RS30) 1 32953U 08025A 26121.26021963 -.00000012 00000+0 -16080-3 0 9990 2 32953 82.5083 24.6275 0020593 54.7757 305.5247 12.43177536813861 KKS-1 (KISEKI) 1 33499U 09002H 26121.23064659 .00001655 00000+0 21032-3 0 9993 2 33499 98.1195 42.9335 0009345 83.5417 276.6860 14.83000891929232 SWISSCUBE 1 35932U 09051B 26121.16438687 .00001246 00000+0 25621-3 0 9993 2 35932 98.4066 28.2309 0007070 10.5542 349.5806 14.62388925882283 BEESAT-1 1 35933U 09051C 26121.21804632 .00001044 00000+0 21964-3 0 9999 2 35933 98.3994 28.0185 0005858 26.1333 334.0163 14.61642156882324 ITUPSAT1 1 35935U 09051E 26121.16792483 .00000963 00000+0 20913-3 0 9997 2 35935 98.4078 27.2087 0008229 33.0591 327.1122 14.60368336881871 XIWANG-1 (HOPE-1) 1 36122U 09072B 26121.27642822 -.00000044 00000+0 -19246-6 0 9994 2 36122 100.3992 75.8654 0007472 346.4268 13.6643 13.16438542786830 O/OREOS (USA 219) 1 37224U 10062C 26120.57735434 .00002067 00000+0 20159-3 0 9990 2 37224 71.9711 188.1650 0013851 165.0480 195.1103 14.93549499109532 JUGNU 1 37839U 11058B 26120.64927935 .00000469 00000+0 10539-3 0 9990 2 37839 19.9604 237.2363 0018452 271.8214 120.1143 14.13762363752295 SRMSAT 1 37841U 11058D 26121.30100332 .00000439 00000+0 94558-4 0 9992 2 37841 19.9736 343.2629 0011754 48.5124 107.4822 14.11564780751184 STRAND-1 1 39090U 13009E 26121.06086983 .00000298 00000+0 11472-3 0 9992 2 39090 98.3914 302.4576 0008957 19.9875 340.1662 14.37134831690295 ZACUBE-1 (TSHEPISOSAT) 1 39417U 13066B 26121.14295588 .00006103 00000+0 47576-3 0 9995 2 39417 97.8125 83.2265 0043576 50.8788 309.6297 15.00802839673676 GOMX-1 1 39430U 13066Q 26121.26595580 .00001613 00000+0 24932-3 0 9990 2 39430 97.6515 324.6852 0127710 227.8384 131.1920 14.69277917663023 CUBEBUG-2 (LO-74) 1 39440U 13066AA 26121.30072978 .00003434 00000+0 32208-3 0 9995 2 39440 97.8882 70.1042 0057782 181.3629 178.7442 14.93427151669996 FUNCUBE-1 (AO-73) 1 39444U 13066AE 26120.84874317 .00010883 00000+0 68430-3 0 9996 2 39444 97.8252 91.3381 0036980 8.1702 352.0120 15.08838146672527 UWE-3 1 39446U 13066AG 26121.28734808 .00005946 00000+0 51306-3 0 9995 2 39446 97.8671 77.0710 0051130 115.1955 245.4580 14.96635540670560 UNISAT-6 1 40012U 14033C 26120.99714116 .00003419 00000+0 37221-3 0 9991 2 40012 97.7817 274.5646 0044392 222.6580 137.1187 14.87965559639149 DUCHIFAT-1 1 40021U 14033M 26121.07507974 .00087835 00000+0 12207-2 0 9993 2 40021 98.0528 173.9436 0004743 217.8111 142.2809 15.56689026648409 QB50P1 1 40025U 14033R 26121.01529233 .00010323 00000+0 51765-3 0 9994 2 40025 98.0981 128.8793 0009698 37.7500 322.4410 15.17514602645878 LILACSAT-2 1 40908U 15049K 26121.22863388 .00020453 00000+0 36711-3 0 9996 2 40908 97.4713 156.3258 0008624 72.1826 288.0365 15.49893054588472 FOX-1A (AO-85) 1 40967U 15058D 26121.26169141 .00004716 00000+0 42437-3 0 9997 2 40967 64.7761 64.7792 0128635 74.9744 286.5563 14.90682726106573 CAS-2T & KS-1Q 1 41847U 16066G 26121.14068098 .00000666 00000+0 10392-3 0 9996 2 41847 98.3829 197.4079 0340921 272.3250 83.8953 14.44573997498002 RADFXSAT (FOX-1B) 1 43017U 17073E 26121.16329175 .00012541 00000+0 55126-3 0 9993 2 43017 97.4774 349.3595 0154216 130.5283 230.9499 15.11859548458284 DIWATA-2B 1 43678U 18084H 26121.28466251 .00001946 00000+0 16062-3 0 9992 2 43678 98.1068 315.4936 0012803 332.1893 27.8644 15.00215580409186 ES'HAIL 2 1 43700U 18090A 26120.49191795 .00000147 00000+0 00000+0 0 9998 2 43700 0.0137 266.9736 0001700 165.7205 348.6817 1.00277015 27199 FOX-1CLIFF (AO-95) 1 43770U 18099N 26121.13293471 .00014197 00000+0 55898-3 0 9999 2 43770 97.4419 181.5825 0010011 146.6944 213.4926 15.25682477406042 ITASAT 1 43786U 18099AE 26121.11067115 .00008202 00000+0 40048-3 0 9999 2 43786 97.4066 173.5740 0013701 151.0903 209.1093 15.18440965405769 JY1SAT (JO-97) 1 43803U 18099AX 26121.16005163 .00024356 00000+0 78467-3 0 9993 2 43803 97.4163 183.8787 0007206 85.1403 275.0662 15.32161111406424 UWE-4 1 43880U 18111E 26121.24780919 .00042968 00000+0 96162-3 0 9992 2 43880 97.5866 47.5858 0010346 124.5765 235.6460 15.43293061403532 TIANYAN 01 1 44881U 19093C 26121.26114537 .00000253 00000+0 34717-4 0 9993 2 44881 97.7549 194.6360 0012214 238.9822 121.0195 14.86439789344448 RS-44 & BREEZE-KM R/B 1 44909U 19096E 26121.17450964 .00000020 00000+0 41948-4 0 9990 2 44909 82.5257 10.9471 0216406 254.2584 103.4555 12.79747972296339 SALSAT 1 46495U 20068K 26120.97394616 .00009136 00000+0 32572-3 0 9990 2 46495 97.8854 121.1916 0011671 106.1690 254.0834 15.29093123308148 XW-3 (CAS-9) 1 50466U 21131B 26121.26529973 .00000454 00000+0 15404-3 0 9993 2 50466 98.4957 213.9159 0003120 227.2564 132.8363 14.41311207228359 GREENCUBE (IO-117) 1 53109U 22080E 26119.47010391 -.00000003 00000+0 00000+0 0 9996 2 53109 70.1461 315.1961 0008895 300.7857 59.1927 6.42583316 88934 UMKA 1 (RS40S) 1 57172U 23091G 26121.23835869 .00008344 00000+0 38666-3 0 9993 2 57172 97.5086 180.1268 0011233 284.5150 75.4839 15.20287288156876 CUBESX-HSE 3 (RS42S) 1 57178U 23091N 26121.29910706 .00018438 00000+0 63506-3 0 9995 2 57178 97.5123 186.3310 0009526 254.3353 105.6836 15.30043745157257 MONITOR-3 (RS58S) 1 57180U 23091Q 26121.28949143 .00014407 00000+0 54672-3 0 9990 2 57180 97.5116 184.4190 0010274 262.3533 97.6539 15.26907331157130 MONITOR-4 (RS57S) 1 57182U 23091S 26121.27147727 .00014691 00000+0 55581-3 0 9994 2 57182 97.5110 184.3689 0010275 263.0882 96.9188 15.27002866157136 MONITOR-2 (RS39S) 1 57184U 23091U 26121.26823088 .00006126 00000+0 30016-3 0 9996 2 57184 97.5108 179.8612 0009609 276.1959 83.8180 15.18476760156830 SVYATOBOR 1 (RS60S) 1 57187U 23091X 26121.24625466 .00012991 00000+0 51005-3 0 9995 2 57187 97.5123 184.8257 0008039 253.4324 106.6032 15.25818490157155 VIZARD-METEO (RS38S) 1 57189U 23091Z 26121.28444885 .00022716 00000+0 67945-3 0 9991 2 57189 97.5119 189.8795 0006554 227.2662 132.8030 15.34549336157494 POLYTECH-UNIVERSE 3 (R*) 1 57191U 23091AB 26121.23567243 .00007124 00000+0 34605-3 0 9996 2 57191 97.5084 179.3340 0014017 294.9393 65.0384 15.18674387156825 UTMN 2 (RS27S) 1 57203U 23091AP 26121.27749837 .00018725 00000+0 62831-3 0 9996 2 57203 97.5116 187.8851 0007045 237.4352 122.6208 15.30907833157360 KUZGTU 1 (RS47S) 1 57217U 23091AV 26121.25044321 .00017573 00000+0 62902-3 0 9994 2 57217 97.5096 185.2851 0009631 258.8597 101.1560 15.28795528157204 SONATE-2 1 59112U 24043Q 26120.96440321 .00046084 00000+0 67605-3 0 9999 2 59112 97.5482 268.6074 0006486 21.0561 339.0958 15.55378542120541 MESAT1 1 60209U 24125G 26121.10918356 .00057656 00000+0 75033-3 0 9995 2 60209 97.2360 337.6755 0011138 40.6829 319.5258 15.58511163102221 OOV-CUBE (TUBSAT-30) 1 60240U 24128F 26121.27472784 .00003053 00000+0 23824-3 0 9994 2 60240 61.9968 29.1244 0050056 123.4610 237.1281 15.02537835 99065 COLIBRI-S (RS67S) 1 61746U 24199M 26121.28679889 .00030867 00000+0 63629-3 0 9990 2 61746 97.3065 354.7680 0010781 92.4435 267.8048 15.45785948130165 HORS 3 (RS81S) 1 61753U 24199U 26121.25581477 .00047849 00000+0 79618-3 0 9993 2 61753 97.3047 356.2610 0009244 96.5114 263.7192 15.51855053130273 HORS 4 (RS82S) 1 61754U 24199V 26121.27771681 .00058698 00000+0 85266-3 0 9994 2 61754 97.3003 357.2187 0008335 92.8447 267.3762 15.55574800130347 HORIZON (RS59S) 1 61757U 24199Y 26121.29913744 .00642877 17564-3 16386-2 0 9998 2 61757 97.2892 3.2234 0004689 132.8862 227.2809 15.95388141130735 ARCTICSAT 1 (RS74S) 1 61762U 24199AD 26121.01234739 .00240401 00000+0 12753-2 0 9998 2 61762 97.2950 1.8007 0005761 94.0049 266.1877 15.79850489130611 SIT-2086 1 61764U 24199AF 26121.24239545 .00033200 00000+0 58737-3 0 9995 2 61764 97.3023 356.8784 0008656 83.3829 276.8408 15.50205033127154 HYPERVIEW 1G (RS66S) 1 61772U 24199AP 26121.29044524 .00122104 00000+0 11806-2 0 9997 2 61772 97.2971 359.0066 0008961 93.8181 266.4104 15.65995950127314 ALTAIR (RS65S) 1 61779U 24199AW 26121.28887592 .00016552 00000+0 47042-3 0 9994 2 61779 97.3094 350.9654 0014766 112.3913 247.8897 15.36130212129911 ASRTU-1 (AO-123) 1 61781U 24199AY 26121.23870112 .00010804 00000+0 31936-3 0 9991 2 61781 97.3066 350.3414 0015757 114.7889 245.4995 15.34982071126725 TUSUR GO (RS78S) 1 61782U 24199AZ 26121.03407985 .01100555 66569-3 16930-2 0 9990 2 61782 97.2851 2.1314 0005004 163.9412 196.2029 16.04437958127505 SAMSAT-IONOSPHERE (RS7*) 1 61784U 24199BB 26121.29298202 .00054498 00000+0 84583-3 0 9997 2 61784 97.3021 356.2045 0011528 96.4979 263.7587 15.53737309130270 RTU MIREA 1 (RS51S) 1 61785U 24199BC 26121.27899322 .00068714 00000+0 96766-3 0 9998 2 61785 97.3014 356.8131 0011297 94.4924 265.7622 15.56344196127163 TEVEL2-4 1 63213U 25052D 26121.27346158 .00026596 00000+0 83534-3 0 9990 2 63213 97.3959 17.6356 0000289 297.5312 62.5901 15.32981635 62920 TEVEL2-5 1 63214U 25052E 26120.70152576 .00018680 00000+0 59139-3 0 9996 2 63214 97.3959 17.0242 0000402 308.3019 51.8187 15.32799831 62833 TEVEL2-6 1 63215U 25052F 26120.64742009 .00019145 00000+0 60679-3 0 9994 2 63215 97.3962 16.9554 0000496 308.8887 51.2311 15.32759360 62828 TEVEL2-1 1 63217U 25052H 26120.66088834 .00018836 00000+0 60601-3 0 9998 2 63217 97.3936 16.6470 0001054 344.2908 15.8301 15.32282302 62815 TEVEL2-3 1 63218U 25052J 26120.65708406 .00018565 00000+0 59650-3 0 9993 2 63218 97.3940 16.6597 0001079 343.6471 16.4736 15.32327642 62812 TEVEL2-2 1 63219U 25052K 26120.66141397 .00018724 00000+0 60232-3 0 9990 2 63219 97.3937 16.6490 0001079 344.9311 15.1898 15.32287401 62811 TEVEL2-9 1 63237U 25052AD 26121.16801952 .00023407 00000+0 79527-3 0 9997 2 63237 97.3998 16.6267 0004692 325.1315 34.9617 15.30467898 62837 TEVEL2-7 1 63238U 25052AE 26121.13509283 .00023037 00000+0 78908-3 0 9998 2 63238 97.4000 16.5285 0004826 324.9321 35.1602 15.30206811 62827 TEVEL2-8 1 63239U 25052AF 26121.14281452 .00022635 00000+0 77585-3 0 9998 2 63239 97.3997 16.5147 0004795 326.5338 33.5599 15.30188164 62827 HADES-ICM 1 63492U 25052BN 26121.18628197 .00635941 00000+0 30472-2 0 9997 2 63492 97.3818 24.3310 0004907 153.9565 206.1951 15.81085461 63360 INNOSAT 16 (RS92S7) 1 64878U 25155C 26121.28937433 .00008584 00000+0 34701-3 0 9994 2 64878 97.4535 88.5958 0010386 2.5494 357.5795 15.24934848 73529 GEOSCAN 6 (RS92S6) 1 64879U 25155D 26121.27901818 .00015250 00000+0 53925-3 0 9999 2 64879 97.4529 89.6922 0007419 0.7319 359.3930 15.29243751 73594 GEOSCAN 1 (RS92S1) 1 64880U 25155E 26121.23313413 .00015698 00000+0 54625-3 0 9999 2 64880 97.4526 89.7562 0007349 1.5015 358.6246 15.29761802 73592 239ALFEROV (RS61S) 1 64881U 25155F 26121.26520123 .00022015 00000+0 72087-3 0 9994 2 64881 97.4528 90.2027 0006885 2.5094 357.6180 15.31662363 73625 GEOSCAN 2 (RS92S2) 1 64890U 25155Q 26121.23530191 .00016519 00000+0 56963-3 0 9994 2 64890 97.4524 89.8921 0006204 349.2060 10.9046 15.30051349 73600 GEOSCAN 5 (RS92S5) 1 64891U 25155R 26121.26401108 .00021594 00000+0 70018-3 0 9999 2 64891 97.4521 90.3210 0006130 12.5103 347.6290 15.31987868 73631 GEOSCAN 4 (RS92S4) 1 64892U 25155S 26121.25246702 .00021906 00000+0 70741-3 0 9996 2 64892 97.4524 90.3455 0006129 12.9908 347.1490 15.32114692 73636 GEOSCAN 3 (RS92S3) 1 64893U 25155T 26121.24394317 .00026602 00000+0 81398-3 0 9990 2 64893 97.4514 90.6422 0005844 16.9354 343.2083 15.33798727 73650 INNOSAT 3 (RS92S0) 1 64894U 25155U 26121.26973688 .00053978 00000+0 13198-2 0 9995 2 64894 97.4473 91.7703 0005064 27.7508 332.4008 15.40616063 73730 KNACKSAT-2 1 67683U 98067XZ 26120.43136678 .00039416 00000+0 55885-3 0 9995 2 67683 51.6295 173.9221 0012627 20.5664 339.5833 15.55969614 12835